This demonstration page uses our WeatherBlox Daily Observations layout. Learn more.

40.92945, -100.16068

Hourly Observations for March 27, 2019

Temp ( °F °C ) Dew Point ( °F °C ) Humidity (%) Winds ( mph kmh ) Pressure ( in mb ) Visibility ( mi km ) Precip ( " mm )
12:15 am 00:15 Clear 54 12 45 7.1 72 72 S 17 28 30.03 1017 10 16.09344 0 0
12:35 am 00:35 Clear 53 11.7 45 7 73 73 S 16 26 30.03 1017 10 16.09344 0 0
12:55 am 00:55 Clear 53 11.5 44 6.8 73 73 S 15 24 30.03 1017 10 16.09344 0 0
1:15 am 01:15 Clear 52 11.1 44 6.6 74 74 SSE 15 24 30.03 1017 10 16.09344 0 0
1:35 am 01:35 Clear 50 10 43 6.3 78 78 SSE 13 20 30.06 1018 10 16.09344 0 0
1:55 am 01:55 Clear 49 9.5 43 6.2 80 80 SSE 15 24 30.03 1017 10 16.09344 0 0
2:15 am 02:15 Clear 50 9.8 43 6.3 79 79 S 15 24 30.03 1017 10 16.09344 0 0
2:35 am 02:35 Clear 50 9.8 43 6.3 79 79 S 16 26 30.03 1017 10 16.09344 0 0
2:55 am 02:55 Clear 49 9.7 43 6.2 79 79 S 15 24 29.97 1015 10 16.09344 0 0
3:15 am 03:15 Clear 49 9.5 43 6.1 80 80 S 15 24 30 1016 10 16.09344 0 0
3:35 am 03:35 Clear 49 9.3 43 6.1 81 81 SSE 12 19 30 1016 10 16.09344 0 0
3:55 am 03:55 Clear 48 9 43 6 82 82 SSE 7 11 30 1016 10 16.09344 0 0
4:15 am 04:15 Clear 47 8.6 42 5.7 82 82 ESE 6 9 30 1016 10 16.09344 0 0
4:35 am 04:35 Clear 47 8.5 42 5.7 83 83 SE 7 11 29.97 1015 10 16.09344 0 0
4:55 am 04:55 Clear 47 8.5 42 5.7 83 83 SSE 8 13 29.97 1015 10 16.09344 0 0
5:15 am 05:15 Clear 47 8.3 42 5.8 84 84 SSE 9 15 29.97 1015 10 16.09344 0 0
5:35 am 05:35 Clear 47 8.5 43 6 84 84 SE 5 7 29.97 1015 10 16.09344 0 0
5:55 am 05:55 Clear 47 8.2 42 5.8 85 85 SSE 7 11 29.94 1014 10 16.09344 0 0
6:15 am 06:15 Clear 46 7.7 42 5.6 87 87 ESE 5 7 29.94 1014 10 16.09344 0 0
6:35 am 06:35 Clear 46 7.8 42 5.6 86 86 SE 7 11 29.94 1014 10 16.09344 0 0
6:55 am 06:55 Clear 46 7.8 42 5.7 87 87 SE 5 7 29.94 1014 10 16.09344 0 0
7:15 am 07:15 Clear 45 7.2 42 5.3 88 88 ESE 5 7 29.94 1014 10 16.09344 0 0
7:35 am 07:35 Sunny 45 7.1 42 5.3 88 88 SE 3 6 29.94 1014 10 16.09344 0 0
7:55 am 07:55 Sunny 44 6.6 41 5 90 90 SE 3 6 29.94 1014 10 16.09344 0 0
8:15 am 08:15 Sunny 45 7.3 42 5.7 90 90 SSE 3 6 29.94 1014 10 16.09344 0 0
8:35 am 08:35 Sunny 46 7.9 43 6.2 89 89 Calm 29.94 1014 10 16.09344 0 0
8:55 am 08:55 Sunny 49 9.2 44 6.8 85 85 S 5 7 29.91 1013 10 16.09344 0 0
9:15 am 09:15 Sunny 51 10.6 46 7.6 82 82 SW 5 7 29.91 1013 10 16.09344 0 0
9:35 am 09:35 Sunny 53 11.9 47 8.1 78 78 SSW 5 7 29.91 1013 10 16.09344 0 0
9:55 am 09:55 Sunny 54 12.3 47 8.1 76 76 SSW 8 13 29.88 1012 10 16.09344 0 0
10:15 am 10:15 Sunny 55 13 47 8.5 74 74 WSW 5 7 29.88 1012 10 16.09344 0 0
10:35 am 10:35 Sunny 56 13.1 47 8.4 73 73 WSW 5 7 29.88 1012 10 16.09344 0 0
10:55 am 10:55 Sunny 58 14.5 48 9.1 70 70 W 6 9 29.88 1012 10 16.09344 0 0
11:15 am 11:15 Sunny 59 15.2 49 9.3 68 68 W 8 13 29.91 1013 10 16.09344 0 0
11:35 am 11:35 Sunny 61 16 49 9.7 66 66 WNW 8 13 29.88 1012 10 16.09344 0 0
11:55 am 11:55 Sunny 62 16.5 49 9.7 64 64 W 7 11 29.88 1012 10 16.09344 0 0
12:15 pm 12:15 Sunny 64 17.5 49 9.7 60 60 WNW 10 17 29.88 1012 10 16.09344 0 0
12:35 pm 12:35 Sunny 65 18.1 48 8.7 54 54 NNW 9 15 29.88 1012 10 16.09344 0 0
12:55 pm 12:55 Sunny 66 18.9 48 8.9 52 52 N 9 15 29.85 1011 10 16.09344 0 0
1:15 pm 13:15 Sunny 67 19.7 47 8.4 48 48 N 7 11 29.83 1010 10 16.09344 0 0
1:35 pm 13:35 Sunny 70 21 46 7.8 43 43 NW 10 17 29.83 1010 10 16.09344 0 0
1:55 pm 13:55 Sunny 71 21.8 43 6.3 37 37 WNW 9 15 29.83 1010 10 16.09344 0 0
2:15 pm 14:15 Sunny 72 22.1 42 5.3 34 34 NW 6 9 29.83 1010 10 16.09344 0 0
2:35 pm 14:35 Sunny 73 22.8 40 4.4 30 30 NNW 10 17 29.8 1009 10 16.09344 0 0
2:55 pm 14:55 Sunny 73 22.9 39 3.9 29 29 NW 10 17 29.8 1009 10 16.09344 0 0
3:15 pm 15:15 Sunny 73 23 35 1.7 25 25 NW 9 15 29.8 1009 10 16.09344 0 0
3:35 pm 15:35 Sunny 74 23.4 35 1.8 24 24 NW 8 13 29.8 1009 10 16.09344 0 0
3:55 pm 15:55 Sunny 74 23.4 33 0.5 22 22 NW 8 13 29.77 1008 10 16.09344 0 0
4:15 pm 16:15 Sunny 76 24.4 33 0.7 21 21 NW 8 13 29.77 1008 10 16.09344 0 0
4:35 pm 16:35 Sunny 76 24.2 31 -0.6 19 19 NW 10 17 29.8 1009 10 16.09344 0 0
4:55 pm 16:55 Sunny 76 24.2 31 -0.6 19 19 WNW 9 15 29.77 1008 10 16.09344 0 0
5:15 pm 17:15 Sunny 76 24.4 31 -0.3 20 20 NW 9 15 29.8 1009 10 16.09344 0 0
5:35 pm 17:35 Sunny 76 24.2 32 -0.1 20 20 WNW 8 13 29.8 1009 10 16.09344 0 0
5:55 pm 17:55 Sunny 76 24.2 33 0.6 21 21 NW 6 9 29.77 1008 10 16.09344 0 0
6:15 pm 18:15 Sunny 73 22.7 38 3.1 28 28 NW 6 9 29.8 1009 10 16.09344 0 0
6:35 pm 18:35 Sunny 72 22.1 37 3 29 29 NW 8 13 29.83 1010 10 16.09344 0 0
6:55 pm 18:55 Sunny 70 21.2 39 3.9 32 32 NW 7 11 29.83 1010 10 16.09344 0 0
7:15 pm 19:15 Sunny 68 19.8 43 6.2 41 41 NW 7 11 29.83 1010 10 16.09344 0 0
7:35 pm 19:35 Sunny 64 18 45 7.3 50 50 WNW 6 9 29.85 1011 10 16.09344 0 0
7:55 pm 19:55 Sunny 62 16.9 43 6.2 50 50 N 6 9 29.85 1011 10 16.09344 0 0
8:15 pm 20:15 Clear 59 15.2 45 7.2 59 59 N 5 7 29.91 1013 10 16.09344 0 0
8:35 pm 20:35 Clear 56 13.6 46 7.8 68 68 N 5 7 29.91 1013 10 16.09344 0 0
8:55 pm 20:55 Clear 54 12.2 44 6.6 69 69 NNE 6 9 29.94 1014 10 16.09344 0 0
9:15 pm 21:15 Clear 58 14.2 40 4.7 53 53 NNE 7 11 29.94 1014 10 16.09344 0 0
9:35 pm 21:35 Clear 56 13.6 42 5.6 59 59 NE 9 15 29.94 1014 10 16.09344 0 0
9:55 pm 21:55 Clear 57 14 43 5.9 58 58 NNE 10 17 29.94 1014 10 16.09344 0 0
10:15 pm 22:15 Clear 56 13.5 42 5.8 60 60 NE 13 20 29.94 1014 10 16.09344 0 0
10:35 pm 22:35 Clear 56 13.1 42 5.6 61 61 NE 15 24 30 1016 10 16.09344 0 0
10:55 pm 22:55 Clear 55 12.6 42 5.8 64 64 NE 13 20 30 1016 10 16.09344 0 0
11:15 pm 23:15 Clear 53 11.5 43 5.9 69 69 NE 7 11 30 1016 10 16.09344 0 0
11:35 pm 23:35 Clear 51 10.6 42 5.5 71 71 NE 9 15 30 1016 10 16.09344 0 0
11:55 pm 23:55 Clear 51 10.7 43 6 73 73 NE 10 17 30 1016 10 16.09344 0 0

Powered by AerisWeather